Weather in Phayao

Thailand     19°07′24″N   99°51′30″E
temp.,
°C
wind,
m/s
gust,
m/s
humid.,
%
clouds,
%
prec.,
mm/h
press.,
hPa
HPBL,
m
14 april, wed
wed1401:00+23wsw1179100 1.0 101225
04:00+22wsw0182100 0.0 101012
07:00+23ssw0179100 0.0 101285
10:00+31ssw1243100 0.0 1013975
13:00+36sw123094 0.0 10092335
16:00+29w2449100 0.3 1007777
19:00+26nnw0067100 0.8 100813
22:00+23ssw2478100 0.0 1012282
15 april, thu
thu1501:00+22ssw1182100 0.0 101025
04:00+21ssw1283100 0.0 100944
07:00+22ssw1179100 0.0 101179
10:00+31ssw1245100 0.0 1012906
13:00+36sw123087 0.0 10082384
16:00+34ssw22306 0.0 10042160
19:00+29ssw114396 0.1 100616
22:00+27ssw145286 0.0 1009106
16 april, fri
fri1601:00+25ssw1264100 0.0 100845
04:00+23s116899 0.0 100832
07:00+24ssw1266100 0.0 101091
10:00+31ssw2241100 0.0 10111014
13:00+36s2128100 0.0 10082371
16:00+36sw332667 0.1 10043168
19:00+25nw2568100 1.3 1009200
22:00+23sw1378100 1.9 1012216
17 april, sat
sat1701:00+23se1178100 2.1 101170
04:00+23se1582100 0.1 1011329
07:00+23s1383100 0.2 1014378
10:00+29s135294 0.1 10151194
13:00+31s224496 0.9 10112205
16:00+29s3451100 0.1 10091321
19:00+25s257187 0.6 1010212
22:00+24s2675100 0.2 1014290
18 april, sun
sun1801:00+22se128392 0.6 101355
04:00+21sse1288100 0.3 101381
07:00+22sse128663 0.9 1014182
10:00+28s125776 0.0 10151124
13:00+33s123762 0.0 10102341
16:00+29sse135084 0.1 1007121
19:00+26se116172 0.2 100828
22:00+24ssw137190 0.2 101059